Simultaneous Nadir Overpasses (SNOs) Predictions

Prediction of SNOs between LANDSAT-8 and METOP-B Satellite Orbit:

Table of predicted SNOs for the next 14.0 days since TLE Epoch: 5/12/2017
Index Date (LANDSAT-8) Time (LANDSAT-8) Lat,Lon (LANDSAT-8) SZA (LANDSAT-8 ) Date (METOP-B) Time (METOP-B) Lat,Lon (METOP-B) SZA (METOP-B ) Distance(km) Time Diff (sec)
1 05/13/2017 13:35:26 81.16, 16.61 64.93 05/13/2017 13:34:15 81.15, 16.49 64.88 2.25 71
2 05/13/2017 14:24:52 -81.17,-175.45 115.04 05/13/2017 14:24:54 -81.18,-175.35 115.03 1.72 2
3 05/16/2017 09:09:43 81.14, 82.77 64.23 05/16/2017 09:08:36 81.14, 82.66 64.19 1.98 67
4 05/16/2017 09:59:08 -81.18,-108.89 115.68 05/16/2017 09:59:14 -81.18,-108.78 115.67 1.85 6
5 05/19/2017 04:44:00 81.14, 149.28 63.62 05/19/2017 04:42:57 81.14, 149.19 63.58 1.45 63
6 05/19/2017 05:33:25 -81.19, -42.36 116.29 05/19/2017 05:33:35 -81.19, -42.23 116.27 2.19 10
7 05/22/2017 00:18:17 81.15,-144.25 63.04 05/22/2017 00:17:18 81.15,-144.29 63.02 0.77 59
8 05/22/2017 01:07:43 -81.17, 23.77 116.91 05/22/2017 01:07:57 -81.18, 23.92 116.88 2.67 14
9 05/24/2017 19:52:33 81.15, -77.80 62.51 05/24/2017 19:51:38 81.15, -77.78 62.49 0.68 55




NCC Satellite Simultaneous Nadir Overpasses (SNOs) Prediction Service
